#timestamp,LO_Frequency,Hit,StdDev 
1576188015.1,286046996.6,N
1576188016.0,286046996.6,N
1576188035.8,286046997.2,N
1576188055.7,286046997.5,N
1576188075.5,286046999.1,N
1576188095.3,286046999.4,N
1576188115.2,286046999.0,N
1576188135.9,286047000.9,N
1576188155.7,286047000.6,N
1576188175.6,286047000.8,N
1576188195.4,286047000.5,N
1576188215.2,286047000.5,N
1576188235.1,286047002.0,N
1576188236.0,286047002.0,N
1576188255.8,286047002.8,N
1576188275.7,286047001.4,N
1576188295.5,286047001.6,N
1576188315.3,286047002.2,N
1576188335.2,286047005.1,N
1576188355.0,286047001.4,N
1576188355.9,286047001.4,N
1576188375.7,286047003.3,N
1576188395.6,286047003.7,N
1576188415.4,286047003.1,N
1576188435.3,286047001.5,N
1576188455.1,286047001.6,N
1576188475.8,286047002.0,N
1576188495.7,286047000.2,N
1576188515.5,286046999.9,N
1576188535.4,286046998.6,N
1576188555.2,286047002.2,N
1576188575.0,286047002.6,N
1576188575.9,286047002.6,N
1576188595.8,286046998.5,N
1576188615.6,286046996.5,N
1576188635.4,286046998.0,N
1576188655.3,286046999.4,N
1576188675.1,286046998.6,N
1576188695.9,286047000.7,N
1576188715.7,286047002.7,N
1576188735.5,286047000.0,N
1576188755.4,286047000.5,N
1576188775.2,286047000.0,N
1576188795.1,286046999.7,N
1576188796.0,286046999.7,N
1576188815.8,286047000.3,N
1576188835.6,286047002.1,N
1576188855.5,286047001.7,N
1576188875.3,286047001.3,N
1576188895.1,286047002.8,N
1576188915.9,286047002.6,N
1576188935.7,286047001.7,N
1576188955.6,286047000.8,N
1576188975.4,286047002.4,N
1576188995.2,286046999.9,N
1576189015.1,286047000.3,N
1576189016.0,286047000.3,N
1576189035.8,286047000.8,N
1576189055.7,286046998.2,N
1576189075.5,286047000.4,N
1576189095.3,286047001.0,N
1576189115.2,286047000.7,N
1576189135.0,286047002.8,N
1576189135.9,286047002.8,N
1576189155.7,286047000.5,N
1576189175.6,286047000.1,N
1576189195.4,286047002.2,N
1576189215.3,286047004.0,Y
1576189235.1,286047004.1,P
1576189255.8,286047004.0,N
1576189275.7,286047002.5,N
1576189295.5,286047004.0,Y
1576189315.4,286046997.0,P
1576189335.2,286046998.8,N
1576189355.0,286047000.9,N
1576189355.9,286047000.9,N
1576189375.8,286046997.7,N
1576189395.6,286046996.5,N
1576189415.4,286046997.0,N
1576189435.3,286046999.3,N
1576189455.1,286047000.3,N
1576189475.9,286047000.6,N
1576189495.7,286047000.0,N
1576189515.5,286046998.5,N
1576189535.4,286046998.7,N
1576189555.2,286047002.7,N
1576189575.0,286046998.5,N
1576189576.0,286047011.9,Y
1576189595.8,286047001.2,P
1576189615.6,286047001.5,N
1576189635.5,286047004.2,P
1576189655.3,286047001.4,N
1576189675.1,286047000.0,N
1576189695.9,286047000.4,N
1576189715.7,286046998.5,N
1576189735.6,286046999.3,N
1576189755.4,286046997.2,N
1576189775.2,286046996.9,N
1576189795.1,286046996.6,N
1576189796.0,286046996.6,N
1576189815.8,286046997.0,N
1576189835.7,286046999.2,N
1576189855.5,286046998.7,N
1576189875.3,286046997.0,N
1576189895.2,286046996.6,N
1576189915.9,286046996.5,N
1576189935.7,286046997.8,N
1576189955.6,286046999.0,N
1576189975.4,286047000.3,N
1576189995.2,286047001.9,N
1576190015.1,286047000.2,N
1576190016.0,286047000.2,N
1576190035.8,286047000.0,N
1576190055.7,286047004.7,N
1576190075.5,286047003.7,N
1576190095.3,286047000.2,N
1576190115.2,286047000.0,N
1576190135.0,286047000.2,N
1576190135.9,286047000.2,N
1576190155.8,286047000.6,N
1576190175.6,286047001.2,N
1576190195.4,286047000.6,N
1576190215.3,286047001.1,N
1576190235.1,286047000.9,N
1576190255.9,286046998.2,N
1576190275.7,286046996.7,N
1576190295.5,286046996.6,N
1576190315.4,286046998.4,N
1576190335.2,286046999.6,N
1576190355.1,286046996.8,N
1576190356.0,286046996.8,N
1576190375.8,286046996.9,N
1576190395.6,286046996.6,N
1576190415.5,286046999.3,N
1576190435.3,286046995.0,N
1576190455.1,286046995.1,N
1576190475.9,286046995.5,N
1576190495.7,286046995.9,N
1576190515.6,286046995.6,N
1576190535.4,286046996.5,N
1576190555.2,286046999.2,N
1576190575.1,286046997.0,N
1576190576.0,286046997.0,N
1576190595.8,286046997.2,N
1576190615.7,286046997.8,N
1576190635.5,286046999.3,N
1576190655.3,286046996.6,N
1576190675.2,286046995.3,N
1576190695.0,286046995.3,N
1576190695.9,286046995.3,N
1576190715.8,286046996.8,N
1576190735.6,286046997.1,N
1576190755.4,286046997.3,N
1576190775.3,286046999.2,N
1576190795.1,286046998.2,N
1576190815.8,286047002.1,N
1576190835.7,286047001.1,N
1576190855.5,286047000.7,N
1576190875.4,286046999.5,N
1576190895.2,286046996.9,N
1576190915.0,286046996.7,N
1576190915.9,286046996.7,N
1576190935.8,286047000.4,N
1576190955.6,286046998.6,N
1576190975.4,286047002.4,N
1576190995.3,286047002.8,N
1576191015.1,286047002.2,N
1576191035.9,286047002.1,N
1576191055.7,286047000.9,N
1576191075.5,286046998.2,N
1576191095.4,286047000.8,N
1576191115.2,286046999.4,N
1576191135.0,286046996.5,N
1576191135.9,286046996.5,N
1576191155.8,286046997.0,N
1576191175.6,286046998.7,N
1576191195.5,286046999.3,N
1576191215.3,286046999.1,N
1576191235.1,286046998.5,N
1576191255.9,286046999.3,N
1576191275.7,286046999.4,N
1576191295.5,286046999.3,N
1576191315.4,286046998.8,N
1576191335.2,286047000.2,N
1576191355.1,286047000.3,N
1576191356.0,286047000.3,N
1576191375.8,286046998.2,N
1576191395.6,286047000.7,N
1576191415.5,286047000.0,N
1576191435.3,286047002.3,N
1576191455.1,286046999.7,N
1576191475.9,286047000.0,N
1576191495.7,286047000.1,N
1576191515.6,286047001.5,N
1576191535.4,286047001.8,N
1576191555.2,286047002.1,N
1576191575.1,286047004.3,N
1576191576.0,286047004.3,N
1576191595.8,286047001.8,N
